Home   Weather   Monthey   Past weeks

Flag for Switzerland Past Weather in Monthey, Valais, Switzerland — Yesterday and Last 2 Weeks

Now
44 °F

Quite cool.


Feels Like: 44 °F
Forecast: 37 / 49 °F
Wind: 2 mph from West

Location: Aigle

Current Time: Feb 20, 2017 at 7:20:45 pm

Latest Report: Feb 20, 2017 at 6:00 pm


Visibility: N/A

Pressure: 30.25 "Hg

Humidity: 75%

Dew Point: 36 °F

Location of MontheyLocation

Past Weather in Monthey — Graph

°F

Monthey Temperature Yesterday

Maximum temperature yesterday: 48 °F (at 2:00 pm)
Minimum temperature yesterday: 29 °F (at 4:00 am)
Average temperature yesterday: 37 °F

High & Low Weather Summary for the Past Weeks

 TemperatureHumidityPressure
High53 °F (Feb 16, 3:00 pm)100% (Feb 7, 12:00 am)30.65 "Hg (Feb 7, 12:00 am)
Low29 °F (Feb 19, 4:00 am)39% (Feb 12, 12:00 am)29.66 "Hg (Feb 5, 5:00 pm)
Average38 °F85%30.24 "Hg
* Reported Feb 5 5:00 pm — Feb 20 5:00 pm, Monthey, Weather by CustomWeather, © 2017

Note: Actual official high and low records may vary slightly from our data, if they occured in-between our weather recording intervals... More about our weather records

Advertising

Monthey Weather History for the Previous 24 Hours

Scroll right to see more
 ConditionsComfort  
Time TempWeatherWind HumidityBarometerVisibility
5:00 pm
Mon, Feb 20
47 °FCool.2 mph65%30.25 "HgN/A
4:00 pm49 °FScattered clouds.6 mph47%30.26 "Hg19 mi
3:00 pm49 °FCool.5 mph53%30.26 "HgN/A
2:00 pm49 °FCool.8 mph58%30.28 "HgN/A
1:00 pm47 °FPassing clouds.7 mph62%30.30 "Hg22 mi
12:00 pm47 °FCool.5 mph60%30.32 "HgN/A
11:00 am44 °FQuite cool.3 mph53%30.32 "HgN/A
10:00 am39 °FPassing clouds.5 mph64%30.35 "Hg19 mi
9:00 am33 °FChilly.2 mph91%30.39 "HgN/A
8:00 am29 °FChilly.2 mph95%30.38 "HgN/A
7:00 am29 °FPassing clouds.2 mph94%30.36 "Hg16 mi
6:00 am30 °FChilly.1 mph92%30.35 "HgN/A
5:00 am31 °FChilly.1 mph94%30.35 "HgN/A
4:00 am31 °FPassing clouds.1 mph92%30.35 "Hg9 mi
3:00 am32 °FChilly.1 mph89%30.35 "HgN/A
2:00 am32 °FChilly.2 mph90%30.35 "HgN/A
1:00 am31 °FChilly.No wind94%30.36 "HgN/A
12:00 am33 °FChilly.No wind91%30.35 "HgN/A
11:00 pm
Sun, Feb 19
31 °FChilly.1 mph93%30.34 "HgN/A
10:00 pm32 °FChilly.2 mph92%30.32 "HgN/A
9:00 pm33 °FChilly.1 mph93%30.32 "HgN/A
8:00 pm36 °FChilly.1 mph84%30.30 "HgN/A
7:00 pm39 °FClear.1 mph79%30.28 "Hg19 mi
Weather by CustomWeather, © 2017

See weather overviewHow to use our weather pages